Terug naar catalogus

CZ-6A DEB

ActiefSSO
NORAD 55002·DEBRIS·🇨🇳 China

Gelanceerd Nov 11, 2022 vanaf Taiyuan Satellite Launch Center

Loading…

Volgende Passages (komende 24 uur)

TLE

VersSource: Space-Track

Epoch: Sep 14, 2026, 11:35 UTC

1 55002U 22151US  26257.48268197  .00000654  00000-0  34051-3 0  9991
2 55002  98.7976 263.7098 0030155  68.7169 291.7221 14.17809443197110

Volg CZ-6A DEB in realtime met AllMySat

Download on the App Store